Vertical_Velocity
1 1 -0 3 9 35 3 0 1 -1 -0 -0 1 -1 -2 3 0 -2 -0 0 1 -1 0 -2 -0 -0 -1 -2 0 2 -2 1 11 0 6 -1 0 -0 -3 1 -2 -2 3 -8 -2
-6 3 4 -15 5 -2 2 2 5 -1 1 4 2 5 5 4 2 1 -1 -0 -2 -1 -1 -1 -2 -1 -2 -2 -1 1 -4 9 -7 -3 0 -1 0 -4 1 -1 -3 -2 -1 -2 -0
-2 6 12 3 7 -2 4 4 0 -1 1 1 0 0 3 1 4 2 -0 -1 -0 -2 0 -4 -2 -4 -1 -2 -3 -4 1 -12 -2 -2 -2 -1 -0 -5 -0 -2 5 -3 -1 -5 -4
-2 2 1 4 3 9 -1 0 -0 -2 2 -0 -2 1 1 1 -5 -2 -1 -1 -0 -2 1 -4 -3 -1 -3 1 -1 -1 -2 -1 -3 -3 -1 -1 -3 -3 -2 1 -0 -1 -0 -3 -5
-3 -2 -4 -18 14 0 -1 2 4 3 1 0 2 1 0 -1 0 -0 -1 -1 -2 0 -1 -0 -2 -1 0 -4 -1 1 -4 -3 -3 -0 -2 -2 0 -5 -1 -3 0 -1 -2 -1 -3
6 -3 -16 5 3 2 -1 3 1 -0 -0 -2 3 -2 1 -4 -0 -2 0 -1 -2 -0 2 3 0 0 -1 -1 -1 -1 -1 -1 -2 -1 -3 -4 -1 -1 1 -4 -1 -0 1 0 -2
0 -5 -5 -3 -4 2 1 -2 -1 2 -2 0 -1 -3 -1 -3 -3 1 -1 -2 -2 -2 -2 -1 -0 2 1 -1 -1 -1 -1 -3 -2 -1 -3 -2 -2 -5 -3 -3 -3 -1 -1 -0 1
-2 0 4 0 5 -1 -3 -0 -1 -1 -3 -2 0 -2 1 0 1 -0 -1 2 1 -3 -3 -2 -2 -3 1 -1 -4 -1 -4 -4 -8 -2 -5 0 -5 7 -11 1 -3 -5 -2 -3 -2
2 0 2 1 -3 -2 -2 -2 1 -1 3 3 3 2 -1 -0 -1 -3 -4 1 -2 -3 -2 -1 -0 -3 -2 -1 -1 -4 -0 0 -2 -3 -1 -3 3 -1 3 -6 -2 -3 -3 -4 -4
-2 1 2 5 3 5 1 -2 -2 4 1 -1 -1 -1 -1 -1 -0 -2 -1 -3 -3 -1 -0 -2 1 -2 -1 -2 2 3 -1 4 -2 4 -4 -4 0 -7 -2 -1 -2 -0 0 -1 -1
-2 -1 -2 -2 0 -1 -2 -0 7 -4 -4 -3 -0 -0 -4 -3 -4 -1 -2 -4 -3 -2 -1 -0 -1 0 -2 -2 -2 -2 -2 -2 -1 2 -9 -3 -0 -8 -4 0 -2 -1 0 -0 -1
-1 -2 -2 -2 -4 -4 -3 -0 -1 -1 0 -3 -3 -2 -1 1 -0 -5 -4 -3 -2 1 1 -2 -3 -3 -2 -0 -1 -2 -2 -2 -5 -2 -4 -2 -9 0 1 -1 0 -1 0 1 -1
-1 -1 -1 -0 -1 -2 -6 -3 1 4 -4 -3 0 -2 -3 -3 -3 -3 3 -2 -0 -0 -0 -1 -1 -1 -2 -3 -3 -3 -2 0 -0 -5 1 -3 -11 3 -6 -2 0 -2 -3 -2 -4
0 -2 -1 -1 -1 2 2 3 1 -2 0 -1 -3 -2 -0 -3 2 8 0 -2 0 -1 -1 -0 -2 -3 -3 -3 -1 -2 -1 1 0 -3 -0 -1 -7 7 -4 -4 -1 -6 -5 -2 -6
0 -0 -1 -1 -2 -2 0 1 1 2 -1 -0 -2 0 1 1 1 -0 -3 -3 -2 1 1 -1 0 -0 -0 1 -1 1 -0 1 -1 1 0 2 0 8 11 4 -2 0 3 -0 -1
-2 -1 -2 -3 -1 -2 -2 1 -1 0 -0 -3 -2 -1 -1 -4 -2 -1 0 1 -1 -0 -1 0 -2 -0 1 -1 2 1 -1 1 0 3 2 -1 0 -1 -3 0 2 2 -1 -5 -2
-2 -3 -1 -2 -2 -2 -2 -1 -0 -3 -0 -1 -1 -1 -2 -2 1 0 -1 -3 -3 -4 -0 -1 -3 -2 -3 -1 -0 -3 -1 3 4 3 3 -2 0 2 -4 -5 -4 -4 7 4 -1
-1 -3 -2 0 -2 -1 0 1 -6 -2 -2 -0 -2 -0 -1 -0 0 -2 2 -0 -1 0 -2 1 3 0 0 -0 -0 -0 -3 1 1 2 1 2 -3 -3 1 -5 -7 -3 -4 -3 -0
-1 -1 -1 -0 -1 -0 -2 0 -0 -2 -3 -4 -3 -0 -0 -2 -1 -1 -1 -1 0 -0 -1 -1 0 0 1 1 0 1 -1 1 -1 -1 2 -1 -1 2 -4 4 -5 -4 3 -1 -9
-2 -0 2 -1 -1 0 -0 -4 -3 -2 -2 -2 -2 -3 -0 -1 -2 -2 -2 -1 -1 1 -1 0 -3 1 1 1 1 1 -1 -5 -1 2 -1 -2 -3 -9 -13 -10 1 -2 -2 1 1
-0 0 0 1 -1 -0 -1 -1 -0 -3 -1 -2 -1 -0 -1 -1 -0 -1 -1 -1 0 -1 -0 -1 -1 -1 2 1 2 -1 -0 -0 -3 -3 3 1 -2 -2 -6 -4 -1 -2 -2 -1 -0
2 2 1 0 1 -0 -1 -1 -0 -2 -2 -2 -1 1 1 1 -1 -1 -0 -1 -1 -1 -1 0 1 -3 1 -2 -0 0 -2 -3 -1 5 -1 -1 -16 -3 -8 -4 1 2 -0 2 -2
-1 -0 3 -0 -2 1 0 -3 -1 -1 1 -0 -1 -1 1 -0 -1 -1 -1 1 1 -1 -2 -3 0 -4 3 -1 -2 -1 1 2 1 2 -7 5 -11 -5 -2 1 -3 2 1 -1 1
-2 -1 -0 1 0 -0 1 -1 -1 -0 -0 -0 -1 -1 -3 -0 -0 0 1 -2 -0 -1 1 -1 -1 -2 -3 0 5 2 5 1 2 1 0 -16 -17 11 1 1 3 1 0 -3 -7
0 1 -1 -1 -1 -1 -2 0 -1 1 -1 0 -0 -1 -0 1 -2 -4 1 2 0 -2 -1 1 -4 1 -0 -2 3 -2 -1 4 -2 0 -5 -5 -9 6 -1 -2 3 0 -1 -1 -2
-2 -2 1 0 1 -0 0 -1 -2 -0 -1 0 2 0 -1 -1 -1 -0 -0 3 1 -0 -3 -2 -4 1 -8 -0 0 -3 2 0 2 0 -8 1 -17 -4 -1 -1 -3 -1 -1 0 -0
2 -0 -2 2 2 0 1 -1 0 -0 -0 -1 -0 0 1 -2 -1 -2 -1 1 2 1 -0 0 -1 -0 -6 0 -2 -5 -1 -1 -0 0 3 -3 9 4 -0 2 -0 -2 -4 1 -1
Height
3032 3035 3039 3046 3048 3054 3060 3065 3069 3074 3079 3083 3087 3091 3093 3097 3100 3103 3106 3109 3109 3111 3112 3114 3116 3116 3117 3120 3122 3123 3127 3129 3131 3129 3127 3125 3127 3128 3129 3130 3131 3133 3134 3132 3135
3035 3037 3040 3044 3050 3055 3061 3066 3070 3075 3080 3084 3088 3092 3095 3096 3099 3102 3105 3106 3108 3109 3112 3113 3114 3116 3117 3118 3120 3122 3125 3127 3123 3122 3123 3122 3124 3123 3127 3126 3129 3129 3130 3130 3131
3038 3040 3042 3049 3055 3058 3064 3068 3072 3076 3080 3084 3088 3091 3094 3096 3098 3100 3102 3103 3105 3107 3109 3111 3113 3114 3115 3116 3118 3119 3123 3120 3121 3120 3121 3120 3120 3119 3121 3122 3125 3124 3125 3125 3126
3043 3044 3048 3053 3057 3061 3065 3069 3072 3077 3080 3084 3088 3091 3093 3096 3100 3099 3101 3102 3103 3105 3107 3108 3110 3112 3113 3114 3116 3118 3117 3118 3118 3118 3118 3118 3116 3117 3115 3118 3120 3120 3120 3120 3122
3048 3050 3052 3057 3061 3065 3070 3072 3076 3080 3083 3087 3090 3091 3094 3095 3098 3098 3099 3101 3102 3104 3105 3106 3108 3109 3110 3111 3112 3113 3113 3114 3114 3114 3114 3113 3113 3111 3109 3114 3114 3114 3114 3115 3115
3051 3057 3061 3062 3067 3069 3074 3077 3080 3083 3086 3089 3091 3093 3095 3098 3097 3098 3099 3099 3100 3101 3103 3104 3105 3107 3107 3108 3109 3109 3109 3109 3110 3110 3108 3107 3108 3105 3105 3107 3108 3108 3108 3108 3108
3061 3065 3068 3069 3072 3075 3077 3080 3082 3085 3087 3090 3092 3095 3096 3097 3097 3098 3098 3099 3100 3101 3102 3102 3103 3104 3105 3105 3105 3106 3106 3105 3106 3106 3104 3102 3103 3099 3100 3101 3102 3101 3101 3101 3100
3068 3070 3071 3075 3077 3078 3081 3084 3086 3089 3091 3093 3094 3095 3096 3096 3097 3097 3097 3098 3098 3099 3101 3102 3102 3103 3103 3103 3103 3105 3104 3105 3102 3103 3101 3102 3098 3101 3093 3097 3096 3096 3096 3094 3092
3073 3075 3077 3078 3079 3081 3084 3087 3089 3090 3092 3093 3095 3095 3096 3096 3097 3096 3097 3097 3097 3098 3099 3099 3100 3101 3102 3101 3103 3102 3104 3105 3104 3100 3098 3097 3091 3092 3092 3091 3089 3089 3087 3086 3085
3078 3078 3080 3082 3084 3087 3088 3089 3090 3092 3094 3096 3096 3099 3098 3098 3097 3097 3097 3097 3097 3097 3097 3098 3098 3098 3100 3099 3102 3102 3103 3103 3102 3101 3095 3091 3084 3086 3088 3085 3082 3082 3080 3078 3077
3084 3085 3086 3088 3089 3090 3091 3093 3098 3099 3097 3097 3097 3097 3098 3098 3098 3098 3098 3098 3098 3097 3097 3097 3098 3098 3098 3098 3099 3099 3099 3098 3098 3097 3090 3087 3081 3082 3082 3079 3076 3075 3074 3072 3071
3091 3091 3091 3092 3093 3093 3094 3095 3097 3100 3099 3099 3099 3100 3100 3099 3098 3098 3099 3099 3098 3097 3095 3096 3096 3097 3098 3097 3097 3097 3097 3097 3095 3092 3089 3084 3076 3076 3075 3074 3073 3072 3071 3068 3064
3095 3095 3095 3095 3095 3097 3097 3099 3100 3101 3102 3104 3103 3103 3102 3102 3101 3101 3100 3098 3098 3097 3096 3096 3098 3097 3097 3097 3096 3096 3096 3096 3095 3089 3087 3082 3076 3076 3073 3073 3072 3070 3067 3061 3055
3097 3097 3097 3097 3099 3098 3100 3101 3102 3103 3105 3109 3107 3106 3105 3103 3104 3100 3098 3100 3098 3098 3097 3098 3097 3097 3097 3097 3096 3094 3094 3093 3090 3089 3089 3084 3082 3077 3074 3072 3072 3067 3059 3051 3043
3099 3099 3099 3100 3101 3102 3103 3103 3104 3105 3106 3111 3109 3107 3105 3105 3104 3102 3100 3099 3099 3098 3099 3098 3097 3097 3097 3097 3095 3094 3091 3090 3087 3087 3086 3083 3085 3074 3074 3072 3066 3058 3048 3039 3032
3101 3101 3101 3101 3103 3105 3105 3105 3106 3108 3110 3111 3110 3108 3107 3105 3105 3103 3101 3100 3099 3099 3098 3098 3098 3098 3097 3095 3094 3091 3088 3086 3085 3087 3084 3080 3082 3072 3069 3063 3055 3049 3038 3030 3023
3103 3103 3103 3103 3105 3106 3108 3108 3109 3108 3114 3113 3111 3109 3107 3107 3105 3104 3103 3101 3101 3101 3100 3099 3098 3097 3096 3094 3092 3090 3087 3084 3084 3082 3073 3076 3076 3068 3066 3060 3051 3039 3032 3024 3016
3107 3106 3106 3106 3107 3108 3109 3110 3109 3113 3112 3112 3111 3110 3110 3108 3107 3106 3105 3103 3102 3101 3099 3098 3097 3095 3094 3094 3092 3091 3090 3089 3084 3077 3076 3072 3069 3065 3063 3059 3052 3043 3030 3019 3012
3111 3110 3109 3109 3110 3110 3111 3110 3112 3113 3114 3113 3112 3111 3110 3109 3108 3106 3105 3104 3103 3101 3101 3098 3095 3094 3093 3092 3092 3090 3090 3089 3087 3083 3080 3069 3065 3063 3061 3057 3047 3039 3029 3019 3011
3114 3113 3113 3112 3112 3112 3113 3112 3113 3113 3113 3113 3112 3112 3110 3109 3108 3106 3106 3105 3103 3101 3099 3098 3094 3092 3092 3092 3091 3090 3090 3089 3087 3082 3075 3066 3065 3062 3057 3049 3042 3035 3028 3021 3013
3115 3115 3115 3114 3115 3115 3114 3113 3113 3113 3113 3113 3112 3110 3110 3109 3107 3106 3106 3105 3102 3101 3099 3097 3096 3094 3091 3089 3089 3089 3088 3088 3087 3087 3082 3071 3060 3058 3055 3048 3041 3036 3030 3022 3014
3117 3116 3117 3116 3116 3114 3114 3114 3113 3112 3111 3111 3110 3109 3108 3107 3106 3105 3104 3104 3102 3100 3098 3097 3094 3091 3091 3088 3088 3088 3088 3087 3087 3085 3083 3079 3063 3057 3053 3048 3042 3037 3030 3025 3017
3120 3118 3117 3117 3115 3114 3113 3113 3112 3111 3109 3109 3109 3109 3108 3107 3107 3104 3103 3102 3100 3100 3098 3096 3094 3092 3089 3090 3087 3085 3085 3084 3084 3083 3078 3076 3060 3056 3052 3048 3042 3035 3030 3025 3019
3122 3120 3119 3117 3115 3115 3113 3112 3111 3109 3108 3108 3108 3107 3106 3105 3105 3104 3102 3101 3099 3097 3096 3095 3092 3092 3090 3087 3086 3083 3083 3081 3081 3079 3072 3064 3055 3054 3051 3045 3041 3036 3030 3024 3019
3123 3121 3119 3117 3115 3114 3114 3112 3110 3109 3109 3107 3106 3106 3106 3105 3104 3102 3101 3099 3097 3095 3094 3093 3089 3087 3082 3078 3076 3073 3072 3073 3071 3069 3068 3057 3053 3051 3047 3043 3038 3033 3029 3024 3019
3125 3122 3120 3117 3115 3114 3113 3111 3110 3109 3108 3107 3105 3104 3104 3104 3104 3101 3099 3097 3096 3093 3092 3090 3085 3082 3074 3072 3070 3066 3065 3064 3063 3061 3057 3053 3046 3046 3044 3040 3037 3033 3028 3023 3018
3124 3122 3121 3118 3115 3114 3113 3112 3110 3108 3108 3106 3105 3103 3100 3099 3097 3096 3094 3094 3093 3091 3089 3087 3084 3082 3072 3071 3068 3060 3054 3055 3056 3055 3054 3051 3049 3046 3042 3039 3036 3033 3029 3023 3018